sat.trackr.live / text

‹ back to catalog

STARLINK-35969

NORAD 66523 · 2025-265H

PAYLOAD ACTIVE UNKNOWN

§ Identity

Operator
Country
US
Launch date
2025-11-19
Launch site
AFETR
Launch vehicle
Mass (kg)
RCS (m²)

Purposes: comms

External: N2YO · Heavens-Above · Gunter

§ Orbital elements

Epoch: 2026-09-20T08:12:20.008800Z

Period
94.27 min
Inclination
42.9995°
Eccentricity
0.0001320
Mean motion
15.27588346 rev/d
Perigee alt
482.1 km
Apogee alt
483.9 km
Semi-major
6,861.2 km
B*
3.3219e-4
RAAN
258.5833°
Arg perigee
273.3350°
Mean anomaly
86.7350°
Rev number
4,688

§ Raw data

STARLINK-359691 66523U 25265H   26263.34189825  .00008892  00000+0  33219-3 0  99982 66523  42.9995 258.5833 0001320 273.3350  86.7350 15.27588346 46889

JSON: /api/v1/satellites/66523 · /tle

For live sub-satellite position, see the globe view (requires WebGL).

§ Visibility from observer

Set your observer location to see the next 7 days of passes ≥ 10°. The values pass through the URL so the page stays shareable.

No JS? Fill the form by hand. The geolocation button needs JavaScript.